Time,TemperatureF,DewpointF,PressureIn,WindDirection,WindDirectionDegrees,WindSpeedMPH,WindSpeedGustMPH,Humidity,HourlyPrecipIn,Conditions,Clouds,dailyrainin,SoftwareType,DateUTC
2013-01-14 10:03:00,26.0,21.0,-100.00,North,0,2.0,-999.0,80,0.00,,,-99.99,,2013-01-14 15:03:00,
2013-01-14 10:12:00,26.0,21.0,-100.00,North,0,2.0,6.0,78,0.00,,,-99.99,,2013-01-14 15:12:00,
2013-01-14 10:23:00,25.0,19.0,-100.00,NNW,345,3.0,9.0,77,0.00,,,-99.99,,2013-01-14 15:23:00,
2013-01-14 10:33:00,25.0,19.0,-100.00,North,0,3.0,6.0,78,0.00,,,-99.99,,2013-01-14 15:33:00,
2013-01-14 10:43:00,25.0,19.0,-100.00,North,0,2.0,5.0,78,0.00,,,-99.99,,2013-01-14 15:43:00,
2013-01-14 10:53:00,26.0,20.0,-100.00,North,0,2.0,7.0,77,0.00,,,-99.99,,2013-01-14 15:53:00,
2013-01-14 11:03:00,26.0,20.0,-100.00,North,0,2.0,5.0,77,0.00,,,-99.99,,2013-01-14 16:03:00,
2013-01-14 11:12:00,26.0,20.0,-100.00,North,0,3.0,6.0,76,0.00,,,-99.99,,2013-01-14 16:12:00,
2013-01-14 11:23:00,27.0,20.0,-100.00,NE,35,2.0,4.0,76,0.00,,,-99.99,,2013-01-14 16:23:00,
2013-01-14 11:33:00,26.0,20.0,-100.00,NNW,330,1.0,5.0,76,0.00,,,-99.99,,2013-01-14 16:33:00,
2013-01-14 11:43:00,27.0,21.0,-100.00,North,0,2.0,6.0,78,0.00,,,-99.99,,2013-01-14 16:43:00,
2013-01-14 11:53:00,27.0,21.0,-100.00,North,350,3.0,6.0,76,0.00,,,-99.99,,2013-01-14 16:53:00,
2013-01-14 12:03:00,27.0,20.0,-100.00,North,350,3.0,7.0,75,0.00,,,-99.99,,2013-01-14 17:03:00,
2013-01-14 12:12:00,27.0,21.0,-100.00,NNW,340,3.0,8.0,75,0.00,,,-99.99,,2013-01-14 17:12:00,
2013-01-14 12:23:00,27.0,21.0,-100.00,NW,315,1.0,6.0,75,0.00,,,-99.99,,2013-01-14 17:23:00,
2013-01-14 12:33:00,27.0,20.0,-100.00,NNW,335,2.0,5.0,75,0.00,,,-99.99,,2013-01-14 17:33:00,
2013-01-14 12:43:00,28.0,21.0,-100.00,North,0,3.0,6.0,73,0.00,,,-99.99,,2013-01-14 17:43:00,
2013-01-14 12:53:00,28.0,21.0,-100.00,North,0,3.0,6.0,73,0.00,,,-99.99,,2013-01-14 17:53:00,
2013-01-14 13:03:00,30.0,22.0,-100.00,NNW,335,2.0,6.0,73,0.00,,,-99.99,,2013-01-14 18:03:00,
2013-01-14 13:13:00,29.0,21.0,-100.00,NNW,345,4.0,7.0,72,0.00,,,-99.99,,2013-01-14 18:13:00,
2013-01-14 13:23:00,29.0,21.0,-100.00,North,0,3.0,7.0,71,0.00,,,-99.99,,2013-01-14 18:23:00,
2013-01-14 13:33:00,30.0,22.0,-100.00,NNE,20,3.0,6.0,72,0.00,,,-99.99,,2013-01-14 18:33:00,
2013-01-14 13:43:00,29.0,21.0,-100.00,NW,325,5.0,9.0,71,0.00,,,-99.99,,2013-01-14 18:43:00,
2013-01-14 13:52:00,29.0,22.0,-100.00,NNE,20,1.0,7.0,72,0.00,,,-99.99,,2013-01-14 18:52:00,
2013-01-14 14:03:00,30.0,22.0,-100.00,NNW,345,4.0,7.0,72,0.00,,,-99.99,,2013-01-14 19:03:00,
2013-01-14 14:12:00,30.0,22.0,-100.00,NNW,345,4.0,7.0,72,0.00,,,-99.99,,2013-01-14 19:12:00,
2013-01-14 14:22:00,30.0,21.0,-100.00,North,350,5.0,9.0,71,0.00,,,-99.99,,2013-01-14 19:22:00,
2013-01-14 14:33:00,30.0,22.0,-100.00,NNW,335,4.0,9.0,71,0.00,,,-99.99,,2013-01-14 19:33:00,
2013-01-14 14:43:00,29.0,21.0,-100.00,North,0,4.0,10.0,72,0.00,,,-99.99,,2013-01-14 19:43:00,
2013-01-14 14:53:00,29.0,22.0,-100.00,North,0,2.0,7.0,73,0.00,,,-99.99,,2013-01-14 19:53:00,
2013-01-14 15:03:00,30.0,22.0,-100.00,North,0,2.0,6.0,72,0.00,,,-99.99,,2013-01-14 20:03:00,
2013-01-14 15:13:00,29.0,22.0,-100.00,North,0,1.0,7.0,72,0.00,,,-99.99,,2013-01-14 20:13:00,
2013-01-14 15:22:00,30.0,22.0,-100.00,NW,315,2.0,7.0,72,0.00,,,-99.99,,2013-01-14 20:22:00,
2013-01-14 15:33:00,29.0,21.0,-100.00,NNW,345,4.0,9.0,72,0.00,,,-99.99,,2013-01-14 20:33:00,
2013-01-14 15:43:00,29.0,22.0,-100.00,NNW,330,3.0,10.0,73,0.00,,,-99.99,,2013-01-14 20:43:00,
2013-01-14 15:53:00,29.0,22.0,-100.00,North,5,4.0,7.0,73,0.00,,,-99.99,,2013-01-14 20:53:00,
2013-01-14 16:03:00,29.0,22.0,-100.00,North,350,3.0,6.0,73,0.00,,,-99.99,,2013-01-14 21:03:00,
2013-01-14 16:12:00,29.0,22.0,-100.00,NNW,345,2.0,6.0,73,0.00,,,-99.99,,2013-01-14 21:12:00,
2013-01-14 16:23:00,29.0,21.0,-100.00,NNW,340,4.0,8.0,73,0.00,,,-99.99,,2013-01-14 21:23:00,
2013-01-14 16:33:00,29.0,22.0,-100.00,NE,55,1.0,9.0,73,0.00,,,-99.99,,2013-01-14 21:33:00,
2013-01-14 16:43:00,29.0,21.0,-100.00,North,10,2.0,5.0,71,0.00,,,-99.99,,2013-01-14 21:43:00,
2013-01-14 16:53:00,29.0,21.0,-100.00,North,10,2.0,6.0,72,0.00,,,-99.99,,2013-01-14 21:53:00,
2013-01-14 17:03:00,29.0,21.0,-100.00,NE,45,2.0,6.0,72,0.00,,,-99.99,,2013-01-14 22:03:00,
2013-01-14 17:12:00,29.0,22.0,-100.00,ENE,60,2.0,7.0,73,0.00,,,-99.99,,2013-01-14 22:12:00,
2013-01-14 17:23:00,29.0,22.0,-100.00,NNE,30,2.0,5.0,73,0.00,,,-99.99,,2013-01-14 22:23:00,
2013-01-14 17:33:00,29.0,22.0,-100.00,NNE,20,3.0,6.0,73,0.00,,,-99.99,,2013-01-14 22:33:00,
2013-01-14 17:43:00,29.0,22.0,-100.00,NNE,30,2.0,8.0,73,0.00,,,-99.99,,2013-01-14 22:43:00,
2013-01-14 17:52:00,29.0,22.0,-100.00,NNE,30,2.0,8.0,73,0.00,,,-99.99,,2013-01-14 22:52:00,
2013-01-14 18:12:00,29.0,21.0,-100.00,NNW,335,2.0,6.0,74,0.00,,,-99.99,,2013-01-14 23:12:00,
2013-01-14 18:23:00,29.0,22.0,-100.00,NE,50,2.0,6.0,74,0.00,,,-99.99,,2013-01-14 23:23:00,
2013-01-14 18:33:00,29.0,22.0,-100.00,NE,50,2.0,5.0,74,0.00,,,-99.99,,2013-01-14 23:33:00,
2013-01-14 18:43:00,28.0,21.0,-100.00,North,5,1.0,5.0,74,0.00,,,-99.99,,2013-01-14 23:43:00,
2013-01-14 18:53:00,28.0,22.0,-100.00,North,0,2.0,4.0,75,0.00,,,-99.99,,2013-01-14 23:53:00,
2013-01-14 19:03:00,28.0,21.0,-100.00,NNW,345,3.0,7.0,74,0.00,,,-99.99,,2013-01-15 00:03:00,
2013-01-14 19:12:00,28.0,22.0,-100.00,North,0,2.0,6.0,75,0.00,,,-99.99,,2013-01-15 00:12:00,
2013-01-14 19:23:00,28.0,21.0,-100.00,NNW,345,3.0,6.0,75,0.00,,,-99.99,,2013-01-15 00:23:00,
2013-01-14 19:33:00,28.0,22.0,-100.00,North,350,2.0,6.0,75,0.00,,,-99.99,,2013-01-15 00:33:00,
2013-01-14 19:43:00,28.0,21.0,-100.00,North,350,2.0,6.0,76,0.00,,,-99.99,,2013-01-15 00:43:00,
2013-01-14 19:52:00,28.0,22.0,-100.00,North,10,2.0,5.0,76,0.00,,,-99.99,,2013-01-15 00:52:00,
2013-01-14 20:02:00,28.0,22.0,-100.00,North,0,1.0,4.0,77,0.00,,,-99.99,,2013-01-15 01:02:00,
2013-01-14 20:12:00,28.0,22.0,-100.00,NNE,30,1.0,4.0,77,0.00,,,-99.99,,2013-01-15 01:12:00,
2013-01-14 20:22:00,28.0,22.0,-100.00,North,355,1.0,4.0,77,0.00,,,-99.99,,2013-01-15 01:22:00,
2013-01-14 20:32:00,28.0,22.0,-100.00,North,0,2.0,5.0,77,0.00,,,-99.99,,2013-01-15 01:32:00,
2013-01-14 20:43:00,28.0,22.0,-100.00,NE,40,2.0,4.0,77,0.00,,,-99.99,,2013-01-15 01:43:00,
2013-01-14 20:52:00,27.0,21.0,-100.00,North,0,2.0,4.0,77,0.00,,,-99.99,,2013-01-15 01:52:00,
2013-01-14 21:02:00,27.0,21.0,-100.00,NNE,20,1.0,6.0,77,0.00,,,-99.99,,2013-01-15 02:02:00,
2013-01-14 21:12:00,27.0,21.0,-100.00,NNE,20,1.0,6.0,77,0.00,,,-99.99,,2013-01-15 02:12:00,
2013-01-14 21:22:00,27.0,21.0,-100.00,North,0,1.0,5.0,79,0.00,,,-99.99,,2013-01-15 02:22:00,
2013-01-14 21:33:00,27.0,21.0,-100.00,North,0,2.0,4.0,79,0.00,,,-99.99,,2013-01-15 02:33:00,
2013-01-14 21:42:00,26.0,21.0,-100.00,North,350,1.0,5.0,80,0.00,,,-99.99,,2013-01-15 02:42:00,
2013-01-14 21:53:00,26.0,21.0,-100.00,NNW,345,3.0,5.0,80,0.00,,,-99.99,,2013-01-15 02:53:00,
2013-01-14 22:03:00,26.0,21.0,-100.00,NNW,345,3.0,5.0,80,0.00,,,-99.99,,2013-01-15 03:03:00,
2013-01-14 22:12:00,26.0,21.0,-100.00,North,0,1.0,6.0,81,0.00,,,-99.99,,2013-01-15 03:12:00,
2013-01-14 22:22:00,26.0,21.0,-100.00,NNW,345,1.0,4.0,81,0.00,,,-99.99,,2013-01-15 03:22:00,
2013-01-14 22:33:00,26.0,21.0,-100.00,NNW,340,1.0,4.0,81,0.00,,,-99.99,,2013-01-15 03:33:00,
2013-01-14 22:42:00,26.0,21.0,-100.00,NNW,345,1.0,6.0,82,0.00,,,-99.99,,2013-01-15 03:42:00,
2013-01-14 22:52:00,26.0,21.0,-100.00,North,10,2.0,4.0,82,0.00,,,-99.99,,2013-01-15 03:52:00,
2013-01-14 23:02:00,25.0,21.0,-100.00,NNW,345,2.0,6.0,82,0.00,,,-99.99,,2013-01-15 04:02:00,
2013-01-14 23:12:00,25.0,21.0,-100.00,NNW,335,1.0,4.0,82,0.00,,,-99.99,,2013-01-15 04:12:00,
2013-01-14 23:22:00,25.0,21.0,-100.00,North,5,1.0,4.0,83,0.00,,,-99.99,,2013-01-15 04:22:00,
2013-01-14 23:32:00,25.0,21.0,-100.00,NNW,345,2.0,4.0,83,0.00,,,-99.99,,2013-01-15 04:32:00,
2013-01-14 23:42:00,25.0,21.0,-100.00,NNW,335,2.0,6.0,83,0.00,,,-99.99,,2013-01-15 04:42:00,
2013-01-14 23:52:00,25.0,20.0,-100.00,NNW,340,3.0,7.0,84,0.00,,,-99.99,,2013-01-15 04:52:00,